Location: Boulder, CO
(40.0083°N, 105.2472°W)
Time: 00:53:19
(UTC-06:00)

SORCE - Visible Passes

Search period start: 24 July 2016 00:00
Search period end: 03 August 2016 00:00
Orbit: 588 x 618 km, 40.0° (Epoch: 23 July)

Date Brightness Start Highest point End Pass type
(mag) Time Alt. Az. Time Alt. Az. Time Alt. Az.
27 Jul 8.0 05:00:36 10° S 05:03:31 17° SE 05:06:26 10° ESE visible
28 Jul 7.4 05:10:42 10° SSW 05:14:30 27° SSE 05:18:16 10° E visible
29 Jul 8.3 03:44:15 11° SE 03:44:20 11° SE 03:45:48 10° ESE visible
29 Jul 6.8 05:21:21 10° SW 05:25:32 41° SSE 05:29:44 10° E visible
30 Jul 7.7 03:54:50 19° SSE 03:55:15 20° SSE 03:58:28 10° E visible
31 Jul 7.0 04:05:22 28° S 04:06:15 31° SSE 04:10:10 10° E visible
01 Aug 6.5 04:15:53 34° SSW 04:17:18 46° SSE 04:21:35 10° E visible
02 Aug 8.4 02:49:40 13° ESE 02:49:40 13° ESE 02:50:27 10° E visible
02 Aug 6.0 04:26:22 30° SW 04:28:27 64° SSE 04:32:52 10° E visible
